Weather in Ingol'

Russia / Krasnoyarsk Krai     55°31′01″N   88°42′34″E
temp.,
°C
wind,
m/s
gust,
m/s
humid.,
%
clouds,
%
prec.,
mm/h
press.,
hPa
HPBL,
m
11 may, tue
tue1101:00+5ese22800 0.0 102011
04:00+4ese11860 0.0 101811
07:00+7ene15740 0.0 1017166
10:00+13e510468 0.0 10161493
13:00+16ene683279 0.0 10152458
16:00+17ene5728100 0.0 10142720
19:00+15ne4837100 0.0 1015703
22:00+10ene2255100 0.0 101714
12 may, wed
wed1201:00+8ssw0162100 0.0 101710
04:00+7ssw006896 0.0 101710
07:00+8e016897 0.0 101871
10:00+13ne345418 0.0 1017761
13:00+16ne454167 0.0 10162368
16:00+15nne4441100 0.0 10161725
19:00+14ne344351 0.0 10161243
22:00+9ese22555 0.0 101713
13 may, thu
thu1301:00+7s22585 0.0 101712
04:00+6s22635 0.0 101725
07:00+9s12575 0.0 101673
10:00+14ene223831 0.0 10151275
13:00+16ne22338 0.0 10142136
16:00+17nne233162 0.0 10122269
19:00+16nw123988 0.0 10111108
22:00+10sw226374 0.1 101214
14 may, fri
fri1401:00+9wsw2377100 0.3 1012101
04:00+7wsw2289100 0.0 101127
07:00+8wnw4788100 0.1 1012562
10:00+9nw467483 0.4 1013974
13:00+12nw7851100 0.8 10132024
16:00+7nnw597298 0.6 10171280
19:00+6wnw585738 0.9 10191493
22:00+3w1179100 0.0 102312
15 may, sat
sat1501:00+2ssw367998 0.0 1023128
04:00+4sw51365100 0.0 1021407
07:00+6wsw81458100 0.0 1021959
10:00+7wsw9186651 0.9 1019900
13:00+9sw10195698 0.9 1018803
16:00+10wsw101769100 0.4 1019992
19:00+12wsw7156096 0.4 1018785
22:00+12wsw5127190 0.3 1019522